Hebron, NE

11:40 PM CDT on March 23, 2017 (GMT -0500)
Hebron Municipal

Weather History for KHJH - October, 2013

Change the Weather History Date:

Wednesday, October 23, 2013

  Actual Average Record
Temperature  
Mean Temperature 50 °F -  
Max Temperature 66 °F 66 °F 86 °F (1975)
Min Temperature 34 °F 40 °F 20 °F (1981)
Degree Days  
Heating Degree Days 15    
Moisture  
Dew Point 36 °F    
Average Humidity 68    
Maximum Humidity 90    
Minimum Humidity 36    
Precipitation  
Precipitation 0.00 in - - ()
Sea Level Pressure  
Sea Level Pressure 30.11 in    
Wind  
Wind Speed 4 mph (West)    
Max Wind Speed 21 mph    
Max Gust Speed 28 mph    
Visibility 10 miles    
Events      
Averages and records for this station are not official NWS values.
T = Trace of Precipitation, MM = Missing Value Source: NWS Daily Summary

Daily Weather History Graph

Daily Weather History Graph

Search for Another Location

Airport or City:

Trip Planner

Search our weather history database for the weather conditions in past years. The results will help you decide how hot, cold, wet, or windy it might be!

Date:

Astronomy

Oct. 23, 2013 Rise Set
Actual Time 7:49 AM CDT 6:38 PM CDT
Civil Twilight 7:22 AM CDT 7:06 PM CDT
Nautical Twilight 6:50 AM CDT 7:38 PM CDT
Astronomical Twilight 6:19 AM CDT 8:09 PM CDT
Moon 10:10 PM CDT (10/23) 12:08 PM CDT (10/23)
Length of Visible Light 11h 44m
Length of Day
10h 48m
Waning Gibbous, 79% of the Moon is Illuminated
Oct 23
Waning Gibbous
Oct 26
Last Quarter
Nov 3
New
Nov 9
First Quarter
Nov 17
Full

Hourly Weather History & Observations

Time (CDT) Temp. Windchill Dew Point Humidity Pressure Visibility Wind Dir Wind Speed Gust Speed Precip Events Conditions
12:15 AM 34.5 °F - 32.0 °F 90% 30.12 in 10.0 mi Calm Calm - N/A   Clear
12:35 AM 34.9 °F - 32.0 °F 89% 30.13 in 10.0 mi Calm Calm - N/A   Clear
12:55 AM 35.8 °F - 32.5 °F 88% 30.13 in 10.0 mi Calm Calm - N/A   Clear
1:15 AM 36.7 °F - 33.3 °F 87% 30.13 in 10.0 mi Calm Calm - N/A   Clear
1:35 AM 37.2 °F - 33.4 °F 86% 30.13 in 10.0 mi Calm Calm - N/A   Clear
1:55 AM 37.4 °F - 33.4 °F 86% 30.13 in 10.0 mi Calm Calm - N/A   Clear
2:15 AM 36.7 °F - 33.4 °F 88% 30.14 in 10.0 mi Calm Calm - N/A   Clear
2:35 AM 37.2 °F - 33.8 °F 87% 30.14 in 10.0 mi Calm Calm - N/A   Clear
2:55 AM 37.6 °F - 33.6 °F 86% 30.14 in 10.0 mi Calm Calm - N/A   Scattered Clouds
3:15 AM 36.5 °F - 33.8 °F 90% 30.14 in 10.0 mi Calm Calm - N/A   Scattered Clouds
3:35 AM 36.7 °F 32.9 °F 33.3 °F 87% 30.14 in 10.0 mi WSW 4.6 mph - N/A   Clear
3:55 AM 36.5 °F 32.7 °F 32.9 °F 87% 30.14 in 10.0 mi WSW 4.6 mph - N/A   Clear
4:15 AM 36.0 °F 32.1 °F 32.7 °F 88% 30.13 in 10.0 mi WSW 4.6 mph - N/A   Clear
4:35 AM 36.7 °F - 33.3 °F 87% 30.14 in 10.0 mi Calm Calm - N/A   Clear
4:55 AM 36.5 °F - 33.1 °F 87% 30.13 in 10.0 mi Calm Calm - N/A   Scattered Clouds
5:15 AM 36.7 °F - 33.3 °F 87% 30.12 in 10.0 mi Calm Calm - N/A   Scattered Clouds
5:35 AM 37.8 °F 35.3 °F 34.3 °F 87% 30.12 in 10.0 mi SW 3.5 mph - N/A   Scattered Clouds
5:55 AM 38.5 °F - 34.3 °F 85% 30.13 in 10.0 mi Calm Calm - N/A   Mostly Cloudy
6:15 AM 39.0 °F - 34.7 °F 84% 30.13 in 10.0 mi Calm Calm - N/A   Overcast
6:35 AM 39.7 °F 37.6 °F 35.2 °F 84% 30.13 in 10.0 mi WSW 3.5 mph - N/A   Overcast
6:55 AM 40.3 °F - 35.4 °F 83% 30.13 in 10.0 mi Calm Calm - N/A   Overcast
7:15 AM 40.6 °F - 35.6 °F 82% 30.12 in 10.0 mi Calm Calm - N/A   Overcast
7:35 AM 41.0 °F - 36.0 °F 82% 30.12 in 10.0 mi Calm Calm - N/A   Overcast
7:55 AM 41.0 °F - 36.3 °F 83% 30.12 in 10.0 mi Calm Calm - N/A   Overcast
8:15 AM 41.2 °F 37.3 °F 36.1 °F 82% 30.11 in 10.0 mi SSW 5.8 mph - N/A   Overcast
8:35 AM 41.5 °F 37.1 °F 36.0 °F 81% 30.10 in 10.0 mi SSW 6.9 mph - N/A   Overcast
8:55 AM 42.1 °F 38.4 °F 36.1 °F 79% 30.11 in 10.0 mi SSW 5.8 mph - N/A   Overcast
9:15 AM 43.0 °F 41.3 °F 36.5 °F 78% 30.11 in 10.0 mi SW 3.5 mph - N/A   Overcast
9:35 AM 43.7 °F 42.1 °F 36.5 °F 76% 30.11 in 10.0 mi SW 3.5 mph - N/A   Overcast
9:55 AM 44.6 °F 41.4 °F 36.0 °F 72% 30.11 in 10.0 mi SSW 5.8 mph - N/A   Overcast
10:15 AM 45.5 °F 40.8 °F 35.2 °F 67% 30.10 in 10.0 mi SW 9.2 mph - N/A   Overcast
10:35 AM 47.5 °F - 35.2 °F 63% 30.10 in 10.0 mi SW 6.9 mph - N/A   Scattered Clouds
10:55 AM 48.6 °F - 34.2 °F 58% 30.10 in 10.0 mi SSW 11.5 mph - N/A   Scattered Clouds
11:15 AM 49.6 °F - 34.5 °F 56% 30.09 in 10.0 mi SSW 8.1 mph - N/A   Scattered Clouds
11:35 AM 50.9 °F - 35.1 °F 55% 30.09 in 10.0 mi SW 8.1 mph - N/A   Scattered Clouds
11:55 AM 51.8 °F - 34.9 °F 53% 30.08 in 10.0 mi South 10.4 mph - N/A   Scattered Clouds
12:15 PM 53.2 °F - 34.9 °F 50% 30.07 in 10.0 mi SSW 12.7 mph 17.3 mph N/A   Clear
12:35 PM 54.9 °F - 34.7 °F 47% 30.06 in 10.0 mi SW 10.4 mph 17.3 mph N/A   Clear
12:55 PM 56.1 °F - 34.9 °F 45% 30.05 in 10.0 mi WSW 15.0 mph 18.4 mph N/A   Clear
1:15 PM 56.7 °F - 35.1 °F 44% 30.04 in 10.0 mi SW 10.4 mph 17.3 mph N/A   Clear
1:35 PM 57.7 °F - 34.7 °F 42% 30.03 in 10.0 mi WSW 13.8 mph 17.3 mph N/A   Clear
1:55 PM 59.5 °F - 35.1 °F 40% 30.02 in 10.0 mi SW 10.4 mph 17.3 mph N/A   Clear
2:15 PM 59.4 °F - 35.8 °F 41% 30.01 in 10.0 mi WSW 11.5 mph 16.1 mph N/A   Clear
2:35 PM 60.4 °F - 36.3 °F 41% 30.00 in 10.0 mi WSW 17.3 mph - N/A   Clear
2:55 PM 60.8 °F - 36.3 °F 40% 30.00 in 10.0 mi WSW 12.7 mph - N/A   Clear
3:15 PM 62.6 °F - 37.0 °F 39% 30.00 in 10.0 mi West 10.4 mph - N/A   Clear
3:35 PM 63.3 °F - 37.0 °F 38% 30.00 in 10.0 mi West 8.1 mph - N/A   Clear
3:55 PM 63.5 °F - 36.9 °F 37% 30.00 in 10.0 mi WNW 6.9 mph - N/A   Clear
4:15 PM 64.2 °F - 38.1 °F 38% 30.00 in 10.0 mi West 5.8 mph - N/A   Clear
4:35 PM 64.6 °F - 37.8 °F 37% 30.00 in 10.0 mi West 5.8 mph - N/A   Clear
4:55 PM 66.2 °F - 38.5 °F 36% 30.00 in 10.0 mi NNW 10.4 mph - N/A   Mostly Cloudy
5:15 PM 63.5 °F - 39.2 °F 41% 30.03 in 10.0 mi North 20.7 mph 27.6 mph N/A   Scattered Clouds
5:35 PM 61.0 °F - 39.2 °F 45% 30.05 in 10.0 mi North 19.6 mph 25.3 mph N/A   Clear
5:55 PM 59.7 °F - 38.5 °F 45% 30.06 in 10.0 mi North 13.8 mph 26.5 mph N/A   Clear
6:15 PM 58.3 °F - 36.9 °F 45% 30.08 in 10.0 mi North 17.3 mph 23.0 mph N/A   Clear
6:35 PM 56.8 °F - 36.5 °F 47% 30.09 in 10.0 mi NNE 13.8 mph 21.9 mph N/A   Clear
6:55 PM 55.0 °F - 36.7 °F 50% 30.10 in 10.0 mi NNE 11.5 mph - N/A   Clear
7:15 PM 54.5 °F - 36.5 °F 51% 30.11 in 10.0 mi NNE 16.1 mph - N/A   Clear
7:35 PM 52.5 °F - 37.6 °F 57% 30.12 in 10.0 mi NNE 13.8 mph 18.4 mph N/A   Clear
7:55 PM 50.4 °F - 38.5 °F 64% 30.15 in 10.0 mi NNE 13.8 mph - N/A   Clear
8:15 PM 48.6 °F - 38.3 °F 68% 30.15 in 10.0 mi NNE 9.2 mph - N/A   Clear
8:35 PM 47.5 °F - 37.8 °F 69% 30.17 in 10.0 mi NNE 10.4 mph - N/A   Clear
8:55 PM 46.0 °F 41.9 °F 37.4 °F 72% 30.17 in 10.0 mi NE 8.1 mph - N/A   Clear
9:15 PM 45.0 °F 41.2 °F 36.5 °F 72% 30.17 in 10.0 mi NE 6.9 mph - N/A   Clear
9:35 PM 44.6 °F 41.4 °F 36.5 °F 73% 30.18 in 10.0 mi NE 5.8 mph - N/A   Scattered Clouds
9:55 PM 43.2 °F 40.5 °F 36.1 °F 76% 30.18 in 10.0 mi NE 4.6 mph - N/A   Scattered Clouds
10:15 PM 42.3 °F - 35.8 °F 78% 30.18 in 10.0 mi Calm Calm - N/A   Scattered Clouds
10:35 PM 41.7 °F - 35.4 °F 78% 30.20 in 10.0 mi Calm Calm - N/A   Mostly Cloudy
10:55 PM 41.9 °F - 35.8 °F 79% 30.20 in 10.0 mi Calm Calm - N/A   Mostly Cloudy
11:15 PM 40.3 °F - 35.6 °F 83% 30.21 in 10.0 mi Calm Calm - N/A   Clear
11:35 PM 40.8 °F - 36.1 °F 83% 30.22 in 10.0 mi Calm Calm - N/A   Scattered Clouds
11:55 PM 41.0 °F - 36.5 °F 84% 30.22 in 10.0 mi Calm Calm - N/A   Scattered Clouds